1495760400.63,53198,13.44,73804.0,-6.45,-7.53,-7.53,0,*51
1495760401.88,53199,13.44,73806.0,-6.43,-7.57,-7.65,0,*57
1495760403.13,53200,13.44,73804.5,-6.43,-7.57,-7.57,0,*55
1495760404.32,53201,13.44,73804.5,-6.43,-7.53,-7.53,0,*54
1495760405.51,53202,13.44,73806.3,-6.43,-7.53,-7.53,0,*57
1495760406.78,53203,13.44,73806.5,-6.45,-7.43,-7.43,0,*50
1495760408.03,53204,13.44,73806.5,-6.43,-7.43,-7.43,0,*51
1495760409.28,53205,13.44,73808.0,-6.43,-7.43,-7.43,0,*50
1495760410.52,53206,13.44,73802.8,-6.43,-7.39,-7.43,0,*5E
1495760411.76,53207,13.44,73804.8,-6.43,-7.39,-7.39,0,*52
1495760413.0,53208,13.44,73804.0,-6.43,-7.31,-7.31,0,*5D
1495760414.24,53209,13.44,73808.3,-6.43,-7.39,-7.39,0,*5C
1495760415.48,53210,13.44,73804.5,-6.43,-7.43,-7.39,0,*59
1495760416.7,53211,13.5,73810.8,-6.43,-7.53,-7.65,0,*50
1495760417.98,53212,13.44,73806.0,-6.41,-7.61,-7.61,0,*54
1495760419.25,53213,13.5,73810.8,-6.41,-7.73,-7.77,0,*51
1495760420.48,53214,13.44,73804.8,-6.43,-7.73,-7.83,0,*5F
1495760421.73,53215,13.44,73806.3,-6.43,-7.69,-7.77,0,*5E
1495760422.97,53216,13.44,73810.0,-6.43,-7.77,-7.77,0,*52
1495760424.21,53217,13.44,73808.5,-6.43,-7.69,-7.69,0,*53
1495760425.48,53218,13.44,73804.5,-6.45,-7.65,-7.65,0,*5A
1495760426.76,53219,13.44,73806.3,-6.45,-7.57,-7.57,0,*5B
1495760427.98,53220,13.5,73808.3,-6.43,-7.53,-7.43,0,*56
1495760429.22,53221,13.44,73804.8,-6.43,-7.65,-7.69,0,*5A
1495760430.46,53222,13.44,73806.5,-6.43,-7.69,-7.69,0,*55
1495760431.73,53223,13.44,73808.8,-6.45,-7.69,-7.77,0,*5D
1495760432.98,53224,13.44,73804.8,-6.43,-7.69,-7.77,0,*5C
1495760434.25,53225,13.44,73806.8,-6.45,-7.65,-7.69,0,*58
1495760435.49,53226,13.44,73808.8,-6.43,-7.69,-7.69,0,*51
1495760436.73,53227,13.44,73804.0,-6.43,-7.69,-7.77,0,*5F
1495760437.95,53228,13.44,73808.0,-6.43,-7.77,-7.83,0,*54
1495760439.22,53229,13.44,73806.0,-6.45,-7.77,-7.77,0,*58
1495760440.46,53230,13.44,73804.3,-6.45,-7.83,-7.69,0,*54
1495760441.69,53231,13.44,73808.8,-6.45,-7.83,-7.83,0,*51
1495760442.93,53232,13.44,73810.3,-6.45,-7.83,-7.77,0,*59
1495760444.16,53233,13.44,73804.5,-6.45,-7.83,-7.83,0,*53
1495760445.4,53234,13.44,73806.3,-6.45,-7.77,-7.83,0,*5F
1495760446.65,53235,13.44,73808.5,-6.45,-7.83,-7.91,0,*56
1495760447.87,53236,13.44,73808.5,-6.45,-7.83,-7.83,0,*56
1495760449.12,53237,13.44,73804.0,-6.47,-7.77,-7.77,0,*55
1495760450.37,53238,13.44,73806.8,-6.51,-7.57,-7.69,0,*50
1495760451.61,53239,13.44,73806.3,-6.47,-7.77,-7.77,0,*5B
1495760452.81,53240,13.44,73808.8,-6.47,-7.83,-7.83,0,*55
1495760454.07,53241,13.44,73804.3,-6.51,-7.73,-7.73,0,*53
1495760455.32,53242,13.44,73804.0,-6.47,-7.77,-7.77,0,*57
1495760456.56,53243,13.44,73806.3,-6.47,-7.69,-7.77,0,*59
1495760457.76,53244,13.44,73806.8,-6.47,-7.83,-7.83,0,*51
1495760458.98,53245,13.44,73806.3,-6.47,-7.83,-7.77,0,*5B
1495760460.23,53246,13.44,73804.5,-6.47,-7.69,-7.77,0,*5C
1495760461.45,53247,13.44,73810.8,-6.47,-7.77,-7.83,0,*59
1495760462.7,53248,13.44,73806.5,-6.47,-7.69,-7.77,0,*52
1495760463.92,53249,13.44,73806.5,-6.51,-7.83,-7.77,0,*50
1495760465.15,53250,13.44,73804.0,-6.47,-7.77,-7.83,0,*5F
1495760466.35,53251,13.44,73806.0,-6.47,-7.83,-7.83,0,*55
1495760467.57,53252,13.44,73804.5,-6.47,-7.83,-7.91,0,*55
1495760468.81,53253,13.44,73804.0,-6.51,-7.95,-7.95,0,*50
1495760470.01,53254,13.44,73806.3,-6.51,-7.83,-7.87,0,*53
1495760471.24,53255,13.44,73804.5,-6.51,-7.83,-7.73,0,*59
1495760472.48,53256,13.44,73806.3,-6.47,-7.69,-7.77,0,*5D
1495760473.68,53257,13.44,73804.5,-6.51,-7.83,-7.83,0,*54
1495760474.93,53258,13.44,73806.5,-6.51,-7.61,-7.69,0,*53
1495760476.18,53259,13.44,73804.0,-6.51,-7.57,-7.61,0,*5F
1495760477.43,53260,13.44,73806.8,-6.51,-7.69,-7.69,0,*50
1495760478.66,53261,13.44,73806.5,-6.51,-7.73,-7.83,0,*5E
1495760479.86,53262,13.44,73804.8,-6.51,-7.87,-7.87,0,*52
1495760481.07,53263,13.44,73804.8,-6.51,-7.87,-7.95,0,*50
1495760482.29,53264,13.44,73802.3,-6.51,-7.87,-7.95,0,*57
1495760483.53,53265,13.44,73806.5,-6.51,-7.95,-7.95,0,*55
1495760484.75,53266,13.44,73802.8,-6.51,-7.87,-7.95,0,*55
1495760485.95,53267,13.44,73806.3,-6.51,-7.87,-7.87,0,*57
1495760487.2,53268,13.44,73804.0,-6.55,-7.99,-7.99,0,*5C
1495760488.47,53269,13.44,73810.5,-6.53,-7.91,-7.91,0,*5B
1495760489.71,53270,13.44,73808.3,-6.55,-7.91,-7.99,0,*5D
1495760490.98,53271,13.44,73804.0,-6.53,-7.91,-7.99,0,*5A
1495760492.25,53272,13.44,73806.5,-6.53,-7.99,-7.99,0,*51
1495760493.51,53273,13.44,73808.0,-6.53,-8.03,-7.99,0,*5C
1495760494.76,53274,13.44,73806.3,-6.55,-8.03,-8.11,0,*52
1495760496.02,53275,13.44,73806.3,-6.53,-7.99,-8.03,0,*5A
1495760497.27,53276,13.44,73806.3,-6.55,-8.03,-8.11,0,*50
1495760498.51,53277,13.44,73804.3,-6.55,-8.03,-8.03,0,*52
1495760499.75,53278,13.44,73804.0,-6.55,-8.03,-8.03,0,*5D
1495760501.0,53279,13.44,73804.5,-6.55,-8.11,-8.03,0,*5F
1495760502.24,53280,13.44,73804.3,-6.55,-8.03,-8.03,0,*5A
1495760503.52,53281,13.44,73804.5,-6.57,-8.07,-8.03,0,*5D
1495760504.79,53282,13.44,73804.3,-6.57,-7.95,-7.95,0,*5A
1495760506.06,53283,13.44,73806.5,-6.57,-7.91,-7.95,0,*5F
1495760507.31,53284,13.44,73804.0,-6.55,-7.77,-7.91,0,*56
1495760508.56,53285,13.44,73806.5,-6.57,-7.77,-7.83,0,*56
1495760509.83,53286,13.44,73802.5,-6.57,-7.91,-7.77,0,*56
1495760511.08,53287,13.44,73800.8,-6.57,-7.91,-7.83,0,*5C
1495760512.36,53288,13.44,73806.5,-6.57,-7.69,-7.69,0,*50
1495760513.64,53289,13.44,73804.8,-6.57,-7.65,-7.65,0,*51
1495760514.91,53290,13.44,73802.8,-6.57,-7.69,-7.65,0,*55
1495760516.13,53291,13.44,73804.3,-6.57,-7.53,-7.53,0,*58
1495760517.38,53292,13.44,73802.3,-6.57,-7.43,-7.53,0,*5A
1495760518.66,53293,13.44,73804.8,-6.57,-7.43,-7.43,0,*5A
1495760519.91,53294,13.44,73806.5,-6.55,-7.39,-7.39,0,*5F
1495760521.15,53295,13.44,73804.3,-6.53,-7.49,-7.39,0,*5F
1495760522.37,53296,13.44,73804.5,-6.55,-7.39,-7.49,0,*5A
1495760523.6,53297,13.44,73808.5,-6.53,-7.39,-7.49,0,*5D
1495760524.85,53298,13.44,73806.5,-6.55,-7.35,-7.31,0,*57
1495760526.1,53299,13.44,73806.5,-6.55,-7.31,-7.35,0,*56
1495760527.37,53300,13.44,73804.8,-6.53,-7.35,-7.35,0,*55
1495760528.64,53301,13.44,73798.8,-6.53,-7.35,-7.35,0,*54
1495760529.92,53302,13.44,73806.8,-6.53,-7.35,-7.39,0,*5B
1495760531.14,53303,13.44,73806.3,-6.55,-7.23,-7.31,0,*53
1495760532.38,53304,13.44,73804.0,-6.53,-7.31,-7.19,0,*5B
1495760533.63,53305,13.44,73806.5,-6.53,-7.23,-7.35,0,*57
1495760534.88,53306,13.44,73806.5,-6.51,-7.27,-7.27,0,*51
1495760536.08,53307,13.44,73808.8,-6.47,-7.15,-7.15,0,*57
1495760537.28,53308,13.44,73804.8,-6.47,-7.15,-7.23,0,*5D
1495760538.51,53309,13.44,73802.8,-6.51,-7.19,-7.27,0,*53
1495760539.75,53310,13.44,73804.0,-6.51,-7.31,-7.31,0,*56
1495760541.0,53311,13.44,73804.5,-6.51,-7.27,-7.27,0,*57
1495760542.2,53312,13.44,73808.0,-6.51,-7.19,-7.19,0,*54
1495760543.4,53313,13.44,73804.3,-6.47,-7.15,-7.15,0,*52
1495760544.6,53314,13.44,73806.3,-6.47,-7.23,-7.23,0,*55
1495760545.82,53315,13.44,73806.3,-6.47,-7.23,-7.27,0,*50
1495760547.07,53316,13.44,73804.5,-6.47,-7.27,-7.27,0,*57
1495760548.31,53317,13.44,73806.5,-6.47,-7.31,-7.31,0,*56
1495760549.55,53318,13.44,73800.3,-6.43,-7.31,-7.39,0,*55
1495760550.82,53319,13.44,73806.5,-6.45,-7.39,-7.31,0,*52
1495760552.06,53320,13.44,73802.8,-6.45,-7.31,-7.23,0,*53
1495760553.29,53321,13.44,73804.3,-6.45,-7.11,-7.15,0,*55
1495760554.51,53322,13.44,73802.8,-6.45,-7.23,-7.23,0,*52
1495760555.74,53323,13.44,73806.5,-6.45,-7.23,-7.23,0,*53
1495760556.96,53324,13.44,73802.8,-6.45,-7.15,-7.11,0,*50
1495760558.21,53325,13.44,73804.3,-6.45,-7.11,-7.01,0,*54
1495760559.46,53326,13.44,73808.3,-6.43,-6.97,-6.97,0,*50
1495760560.67,53327,13.44,73806.0,-6.43,-6.89,-6.97,0,*5E
1495760561.92,53328,13.44,73804.3,-6.43,-6.97,-7.01,0,*50
1495760563.12,53329,13.44,73804.0,-6.43,-7.11,-7.11,0,*5F
1495760564.38,53330,13.44,73806.8,-6.41,-7.05,-7.05,0,*55
1495760565.66,53331,13.44,73806.3,-6.41,-6.93,-6.97,0,*50
1495760566.93,53332,13.44,73802.5,-6.41,-6.97,-6.97,0,*57
1495760568.2,53333,13.44,73804.0,-6.41,-6.97,-6.97,0,*56
1495760569.43,53334,13.44,73806.8,-6.41,-7.11,-7.19,0,*59
1495760570.63,53335,13.44,73810.5,-6.39,-7.23,-7.23,0,*5F
1495760571.83,53336,13.44,73804.3,-6.39,-7.19,-7.23,0,*55
1495760573.03,53337,13.44,73802.5,-6.39,-7.11,-7.19,0,*55
1495760574.24,53338,13.44,73802.5,-6.39,-7.11,-7.11,0,*52
1495760575.46,53339,13.44,73804.8,-6.39,-7.05,-7.11,0,*56
1495760576.69,53340,13.44,73804.8,-6.41,-7.19,-7.19,0,*52
1495760577.89,53341,13.44,73804.3,-6.39,-7.23,-7.23,0,*5C
1495760579.11,53342,13.44,73804.5,-6.39,-7.27,-7.23,0,*5B
1495760580.38,53343,13.44,73806.8,-6.41,-7.27,-7.27,0,*51
1495760581.65,53344,13.44,73804.5,-6.41,-7.35,-7.27,0,*55
1495760582.92,53345,13.44,73802.5,-6.41,-7.35,-7.35,0,*57
1495760584.19,53346,13.44,73802.0,-6.41,-7.35,-7.35,0,*54
1495760585.41,53347,13.44,73804.5,-6.39,-7.49,-7.39,0,*5D
1495760586.6,53348,13.44,73804.8,-6.39,-7.49,-7.49,0,*55
1495760587.84,53349,13.44,73804.0,-6.39,-7.39,-7.39,0,*54
1495760589.11,53350,13.44,73806.3,-6.41,-7.27,-7.35,0,*50
1495760590.36,53351,13.44,73804.5,-6.39,-7.27,-7.27,0,*5D
1495760591.63,53352,13.44,73802.3,-6.41,-7.35,-7.27,0,*52
1495760592.89,53353,13.44,73804.8,-6.41,-7.27,-7.27,0,*50
1495760594.11,53354,13.44,73806.0,-6.39,-7.11,-7.05,0,*5D
1495760595.31,53355,13.44,73804.3,-6.39,-7.23,-7.11,0,*58
1495760596.56,53356,13.44,73804.8,-6.39,-7.27,-7.27,0,*5A
1495760597.8,53357,13.44,73806.3,-6.39,-7.27,-7.35,0,*58
1495760599.05,53358,13.44,73804.3,-6.39,-7.27,-7.27,0,*54
1495760600.3,53359,13.44,73804.3,-6.39,-7.35,-7.27,0,*56
1495760601.54,53360,13.44,73806.8,-6.39,-7.35,-7.35,0,*5F
1495760602.73,53361,13.44,73804.0,-6.39,-7.49,-7.49,0,*5E
1495760603.98,53362,13.44,73800.8,-6.39,-7.27,-7.39,0,*52
1495760605.22,53363,13.44,73806.8,-6.39,-7.27,-7.39,0,*53
1495760606.47,53364,13.44,73802.3,-6.39,-7.35,-7.39,0,*57
1495760607.68,53365,13.44,73804.3,-6.39,-7.39,-7.49,0,*5D
1495760608.87,53366,13.44,73802.8,-6.39,-7.49,-7.49,0,*59
1495760610.06,53367,13.44,73806.0,-6.39,-7.49,-7.49,0,*58
1495760611.31,53368,13.44,73806.3,-6.41,-7.49,-7.39,0,*5F
1495760612.52,53369,13.44,73804.8,-6.39,-7.39,-7.49,0,*51
1495760613.74,53370,13.44,73804.5,-6.41,-7.49,-7.49,0,*51
1495760614.93,53371,13.44,73804.3,-6.39,-7.49,-7.49,0,*5F
1495760616.19,53372,13.44,73806.8,-6.41,-7.39,-7.39,0,*53
1495760617.41,53373,13.44,73806.5,-6.41,-7.49,-7.49,0,*52
1495760618.65,53374,13.44,73804.8,-6.39,-7.39,-7.39,0,*5A
1495760619.89,53375,13.44,73808.3,-6.39,-7.39,-7.39,0,*5B
1495760621.1,53376,13.44,73806.5,-6.41,-7.49,-7.53,0,*5C
1495760622.31,53377,13.44,73806.5,-6.41,-7.49,-7.49,0,*56
1495760623.5,53378,13.44,73804.8,-6.39,-7.49,-7.49,0,*56
1495760624.75,53379,13.44,73806.8,-6.41,-7.61,-7.53,0,*59
1495760625.94,53380,13.44,73804.3,-6.39,-7.49,-7.53,0,*5A
1495760627.15,53381,13.44,73804.8,-6.39,-7.39,-7.49,0,*57
1495760628.37,53382,13.44,73806.8,-6.41,-7.49,-7.49,0,*5C
1495760629.55,53383,13.44,73800.8,-6.39,-7.49,-7.53,0,*59
1495760630.8,53384,13.44,73804.5,-6.41,-7.49,-7.39,0,*5D
1495760631.99,53385,13.44,73804.0,-6.39,-7.49,-7.49,0,*54
1495760633.18,53386,13.44,73804.5,-6.39,-7.49,-7.49,0,*57
1495760634.43,53387,13.44,73806.5,-6.41,-7.53,-7.61,0,*58
1495760635.67,53388,13.44,73806.3,-6.41,-7.61,-7.53,0,*57
1495760636.94,53389,13.44,73804.3,-6.41,-7.65,-7.65,0,*57
1495760638.21,53390,13.44,73810.0,-6.41,-7.65,-7.73,0,*58
1495760639.49,53391,13.44,73806.5,-6.41,-7.65,-7.73,0,*59
1495760640.76,53392,13.44,73802.8,-6.41,-7.65,-7.73,0,*5A
1495760642.01,53393,13.44,73802.8,-6.43,-7.77,-7.77,0,*5E
1495760643.25,53394,13.44,73802.5,-6.43,-7.69,-7.77,0,*56
1495760644.49,53395,13.44,73806.0,-6.43,-7.77,-7.77,0,*58
1495760645.74,53396,13.44,73802.3,-6.43,-7.69,-7.77,0,*54
1495760646.98,53397,13.44,73802.3,-6.43,-7.69,-7.69,0,*5A
1495760648.22,53398,13.44,73804.0,-6.43,-7.69,-7.69,0,*55
1495760649.46,53399,13.44,73806.8,-6.45,-7.53,-7.57,0,*56
1495760650.68,53400,13.44,73804.3,-6.43,-7.53,-7.57,0,*57
1495760651.93,53401,13.44,73804.5,-6.43,-7.57,-7.65,0,*53
1495760653.18,53402,13.44,73806.5,-6.43,-7.57,-7.57,0,*51
1495760654.37,53403,13.44,73804.8,-6.43,-7.53,-7.53,0,*50
1495760655.62,53404,13.44,73804.3,-6.43,-7.57,-7.65,0,*56
1495760656.87,53405,13.44,73802.5,-6.43,-7.57,-7.65,0,*57
1495760658.15,53406,13.44,73804.5,-6.45,-7.57,-7.65,0,*52
1495760659.4,53407,13.44,73804.0,-6.43,-7.57,-7.57,0,*54
1495760660.67,53408,13.44,73806.0,-6.45,-7.65,-7.65,0,*5D
1495760661.92,53409,13.44,73802.0,-6.43,-7.65,-7.57,0,*5B
1495760663.17,53410,13.44,73806.5,-6.43,-7.57,-7.57,0,*52
1495760664.44,53411,13.44,73802.8,-6.45,-7.43,-7.43,0,*55
1495760665.69,53412,13.44,73804.3,-6.45,-7.53,-7.43,0,*57
1495760666.96,53413,13.44,73806.3,-6.45,-7.43,-7.39,0,*5A
1495760668.2,53414,13.44,73804.5,-6.43,-7.31,-7.39,0,*5E
1495760669.45,53415,13.44,73804.3,-6.43,-7.31,-7.43,0,*52
1495760670.69,53416,13.44,73802.0,-6.43,-7.39,-7.39,0,*54
1495760671.93,53417,13.44,73806.8,-6.43,-7.43,-7.43,0,*55
1495760673.15,53418,13.44,73802.8,-6.43,-7.43,-7.53,0,*5B
1495760674.36,53419,13.44,73806.0,-6.41,-7.49,-7.49,0,*59
1495760675.59,53420,13.44,73802.0,-6.43,-7.53,-7.43,0,*50
1495760676.8,53421,13.44,73804.3,-6.43,-7.43,-7.53,0,*51
1495760677.99,53422,13.44,73806.3,-6.43,-7.53,-7.53,0,*53
1495760679.24,53423,13.44,73800.5,-6.43,-7.57,-7.57,0,*52
1495760680.49,53424,13.44,73806.0,-6.43,-7.57,-7.57,0,*55
1495760681.74,53425,13.44,73804.5,-6.43,-7.57,-7.57,0,*54
1495760682.99,53426,13.44,73806.3,-6.43,-7.57,-7.57,0,*57
1495760684.24,53427,13.44,73804.0,-6.43,-7.43,-7.57,0,*53
1495760685.49,53428,13.44,73804.3,-6.45,-7.53,-7.57,0,*5B
1495760686.74,53429,13.44,73802.5,-6.43,-7.57,-7.57,0,*58
1495760687.92,53430,13.44,73802.0,-6.43,-7.53,-7.53,0,*50
1495760689.17,53431,13.44,73802.8,-6.43,-7.57,-7.57,0,*51
1495760690.43,53432,13.44,73806.5,-6.43,-7.57,-7.57,0,*52
1495760691.7,53433,13.44,73806.0,-6.45,-7.57,-7.43,0,*50
1495760692.92,53434,13.44,73804.0,-6.43,-7.57,-7.53,0,*50
1495760694.17,53435,13.44,73806.8,-6.43,-7.57,-7.57,0,*55
1495760695.42,53436,13.44,73804.3,-6.43,-7.43,-7.43,0,*56
1495760696.64,53437,13.44,73800.5,-6.43,-7.53,-7.57,0,*53
1495760697.89,53438,13.44,73802.5,-6.43,-7.57,-7.57,0,*58
1495760699.14,53439,13.44,73802.5,-6.43,-7.57,-7.57,0,*59
1495760700.39,53440,13.44,73806.0,-6.43,-7.65,-7.57,0,*56
1495760701.63,53441,13.44,73806.0,-6.43,-7.69,-7.65,0,*5A
1495760702.88,53442,13.44,73802.5,-6.43,-7.65,-7.57,0,*54
1495760704.13,53443,13.44,73804.8,-6.43,-7.57,-7.65,0,*55
1495760705.38,53444,13.44,73806.3,-6.43,-7.65,-7.65,0,*53
1495760706.65,53445,13.44,73804.5,-6.45,-7.57,-7.65,0,*55
1495760707.9,53446,13.44,73806.3,-6.43,-7.57,-7.57,0,*51
1495760709.15,53447,13.44,73806.0,-6.45,-7.53,-7.57,0,*52
1495760710.42,53448,13.44,73806.8,-6.45,-7.43,-7.43,0,*59
1495760711.7,53449,13.44,73802.3,-6.45,-7.43,-7.43,0,*58
1495760712.94,53450,13.44,73806.8,-6.45,-7.57,-7.53,0,*54
1495760714.13,53451,13.44,73806.5,-6.43,-7.53,-7.53,0,*57
1495760715.38,53452,13.44,73804.3,-6.43,-7.43,-7.39,0,*59
1495760716.62,53453,13.44,73806.8,-6.43,-7.31,-7.31,0,*55
1495760717.89,53454,13.44,73806.8,-6.45,-7.31,-7.31,0,*54
1495760719.13,53455,13.44,73804.3,-6.43,-7.31,-7.31,0,*53
1495760720.37,53456,13.44,73806.0,-6.43,-7.31,-7.31,0,*50
1495760721.59,53457,13.44,73804.3,-6.43,-7.27,-7.23,0,*55
1495760722.79,53458,13.44,73804.3,-6.43,-7.15,-7.23,0,*5B
1495760723.99,53459,13.44,73806.5,-6.43,-7.11,-7.15,0,*5B
1495760725.19,53460,13.44,73804.5,-6.43,-7.11,-7.11,0,*55
1495760726.42,53461,13.44,73806.8,-6.41,-7.23,-7.23,0,*56
1495760727.69,53462,13.44,73802.3,-6.41,-7.35,-7.35,0,*55
1495760728.95,53463,13.44,73804.8,-6.41,-7.39,-7.35,0,*58
1495760730.22,53464,13.44,73806.0,-6.41,-7.35,-7.27,0,*50
1495760731.49,53465,13.44,73804.8,-6.41,-7.39,-7.35,0,*5E
1495760732.75,53466,13.44,73808.3,-6.41,-7.39,-7.39,0,*51
1495760733.98,53467,13.44,73806.3,-6.41,-7.23,-7.23,0,*50
1495760735.2,53468,13.44,73804.8,-6.41,-7.23,-7.23,0,*5F
1495760736.43,53469,13.44,73806.8,-6.41,-7.19,-7.23,0,*57
1495760737.63,53470,13.44,73804.5,-6.39,-7.23,-7.19,0,*50
1495760738.83,53471,13.44,73804.5,-6.39,-7.19,-7.19,0,*58
1495760740.05,53472,13.44,73802.5,-6.39,-7.23,-7.27,0,*5F
1495760741.3,53473,13.44,73804.3,-6.39,-7.27,-7.27,0,*5A
1495760742.56,53474,13.44,73804.8,-6.41,-7.27,-7.27,0,*52
1495760743.81,53475,13.44,73802.3,-6.39,-7.27,-7.27,0,*5C
1495760745.05,53476,13.44,73802.3,-6.39,-7.27,-7.27,0,*5F
1495760746.29,53477,13.44,73804.8,-6.37,-7.19,-7.05,0,*5D
1495760747.51,53478,13.44,73806.0,-6.39,-7.11,-7.05,0,*54
1495760748.71,53479,13.44,73806.3,-6.35,-7.15,-7.11,0,*58
1495760749.94,53480,13.44,73804.0,-6.37,-7.19,-7.19,0,*58
1495760751.16,53481,13.44,73806.5,-6.37,-7.15,-7.15,0,*59
1495760752.36,53482,13.44,73804.3,-6.39,-7.19,-7.23,0,*5D
1495760753.58,53483,13.44,73804.3,-6.39,-7.27,-7.23,0,*51
1495760754.79,53484,13.44,73804.0,-6.39,-7.19,-7.23,0,*5B
1495760756.03,53485,13.44,73806.8,-6.35,-7.01,-7.01,0,*5F
1495760757.27,53486,13.44,73806.3,-6.37,-7.05,-7.15,0,*5F
1495760758.49,53487,13.44,73802.0,-6.37,-7.15,-7.15,0,*5F
1495760759.73,53488,13.44,73808.3,-6.37,-7.05,-7.15,0,*51
1495760761.0,53489,13.44,73804.0,-6.37,-7.01,-7.01,0,*51
1495760762.25,53490,13.44,73804.8,-6.35,-7.01,-7.01,0,*5B
1495760763.49,53491,13.44,73806.3,-6.35,-7.01,-7.01,0,*5A
1495760764.73,53492,13.44,73806.5,-6.35,-7.01,-6.97,0,*57
1495760765.98,53493,13.44,73800.0,-6.35,-7.27,-7.27,0,*58
1495760767.24,53494,13.44,73806.5,-6.37,-7.31,-7.35,0,*59
1495760768.46,53495,13.44,73804.0,-6.35,-7.27,-7.19,0,*53
1495760769.71,53496,13.44,73804.5,-6.37,-7.23,-7.35,0,*58
1495760770.95,53497,13.44,73804.5,-6.35,-7.39,-7.31,0,*54
1495760772.19,53498,13.44,73806.5,-6.35,-7.39,-7.39,0,*53
1495760773.44,53499,13.44,73802.5,-6.35,-7.31,-7.43,0,*57
1495760774.65,53500,13.44,73804.5,-6.37,-7.49,-7.49,0,*51
1495760775.9,53501,13.44,73804.0,-6.35,-7.43,-7.43,0,*52
1495760777.14,53502,13.44,73804.3,-6.35,-7.27,-7.31,0,*56
1495760778.36,53503,13.44,73806.0,-6.35,-7.27,-7.19,0,*5D
1495760779.59,53504,13.44,73808.3,-6.37,-7.23,-7.23,0,*55
1495760780.79,53505,13.44,73806.3,-6.35,-7.19,-7.19,0,*56
1495760781.99,53506,13.44,73806.5,-6.35,-7.15,-7.11,0,*51
1495760783.19,53507,13.44,73806.0,-6.35,-7.15,-7.15,0,*54
1495760784.4,53508,13.44,73806.3,-6.35,-7.11,-7.11,0,*5B
1495760785.6,53509,13.44,73804.0,-6.35,-7.15,-7.15,0,*5A
1495760786.8,53510,13.44,73806.5,-6.35,-7.11,-7.11,0,*52
1495760788.05,53511,13.44,73808.3,-6.35,-7.01,-7.01,0,*53
1495760789.27,53512,13.44,73808.3,-6.33,-7.15,-7.11,0,*52
1495760790.5,53513,13.44,73806.3,-6.33,-7.19,-7.15,0,*5B
1495760791.72,53514,13.44,73804.3,-6.33,-7.19,-7.19,0,*50
1495760792.92,53515,13.44,73806.3,-6.31,-7.15,-7.23,0,*56
1495760794.19,53516,13.44,73804.3,-6.33,-7.27,-7.27,0,*52
1495760795.41,53517,13.44,73802.3,-6.33,-7.15,-7.19,0,*5F
1495760796.63,53518,13.44,73804.5,-6.33,-7.19,-7.19,0,*5C
1495760797.9,53519,13.44,73804.8,-6.33,-7.31,-7.31,0,*5D
1495760799.17,53520,13.44,73806.3,-6.33,-7.31,-7.31,0,*57
1495760800.44,53521,13.44,73804.8,-6.33,-7.31,-7.39,0,*5E
1495760801.7,53522,13.44,73806.8,-6.33,-7.31,-7.39,0,*5D
1495760802.94,53523,13.44,73806.3,-6.31,-7.27,-7.27,0,*56
1495760804.21,53524,13.44,73804.8,-6.33,-7.31,-7.39,0,*5B
1495760805.45,53525,13.44,73804.0,-6.35,-7.31,-7.31,0,*54
1495760806.7,53526,13.44,73806.0,-6.35,-7.39,-7.31,0,*5F
1495760807.89,53527,13.44,73806.5,-6.31,-7.23,-7.23,0,*52
1495760809.16,53528,13.44,73806.5,-6.33,-7.39,-7.31,0,*57
1495760810.42,53529,13.44,73802.3,-6.33,-7.27,-7.27,0,*5E
1495760811.65,53530,13.44,73806.0,-6.33,-7.11,-7.19,0,*5E
1495760812.88,53531,13.44,73802.8,-6.33,-7.11,-7.11,0,*57
1495760814.1,53532,13.44,73806.5,-6.33,-7.15,-7.15,0,*54
1495760815.33,53533,13.44,73802.5,-6.33,-7.11,-7.15,0,*51
1495760816.55,53534,13.44,73806.0,-6.33,-7.15,-7.15,0,*52
1495760817.77,53535,13.44,73804.8,-6.31,-7.05,-7.11,0,*54
1495760818.97,53536,13.44,73804.0,-6.31,-7.15,-7.15,0,*52
1495760820.21,53537,13.44,73806.3,-6.31,-6.97,-7.05,0,*59
1495760821.41,53538,13.44,73804.3,-6.31,-7.11,-7.11,0,*5C
1495760822.65,53539,13.44,73804.8,-6.31,-6.93,-6.93,0,*5D
1495760823.92,53540,13.44,73804.0,-6.33,-6.97,-6.97,0,*51
1495760825.12,53541,13.44,73804.3,-6.31,-6.85,-6.85,0,*52
1495760826.34,53542,13.44,73802.5,-6.31,-6.93,-6.85,0,*56
1495760827.58,53543,13.44,73806.0,-6.31,-6.93,-6.93,0,*50
1495760828.83,53544,13.44,73806.0,-6.31,-6.97,-6.93,0,*53
1495760830.1,53545,13.44,73806.0,-6.29,-6.93,-6.93,0,*5F
1495760831.34,53546,13.44,73808.0,-6.29,-6.85,-6.93,0,*5B
1495760832.59,53547,13.44,73806.8,-6.25,-6.93,-6.93,0,*51
1495760833.84,53548,13.44,73804.0,-6.25,-6.97,-6.97,0,*5E
1495760835.11,53549,13.44,73808.3,-6.29,-6.97,-6.97,0,*53
1495760836.34,53550,13.44,73802.5,-6.25,-6.93,-6.89,0,*5C
1495760837.6,53551,13.44,73804.8,-6.29,-6.97,-6.97,0,*5A
1495760838.83,53552,13.44,73806.5,-6.25,-6.89,-6.93,0,*5E
1495760840.03,53553,13.44,73806.0,-6.25,-6.89,-6.89,0,*54
1495760841.25,53554,13.44,73806.3,-6.25,-6.89,-6.93,0,*58
1495760842.48,53555,13.44,73806.3,-6.25,-6.89,-6.93,0,*59
1495760843.68,53556,13.44,73806.8,-6.25,-6.77,-6.89,0,*50
1495760844.9,53557,13.44,73804.0,-6.25,-6.89,-6.93,0,*5B
1495760846.16,53558,13.44,73804.5,-6.25,-6.93,-6.93,0,*5F
1495760847.43,53559,13.44,73804.8,-6.23,-6.93,-6.93,0,*58
1495760848.71,53560,13.44,73806.8,-6.23,-6.93,-6.93,0,*52
1495760849.9,53561,13.44,73804.3,-6.21,-6.85,-6.77,0,*5C
1495760851.13,53562,13.44,73804.8,-6.23,-6.89,-6.89,0,*50
1495760852.38,53563,13.44,73804.3,-6.23,-6.81,-6.93,0,*52
1495760853.62,53564,13.44,73804.0,-6.21,-7.01,-7.01,0,*54
1495760854.89,53565,13.44,73804.8,-6.23,-7.05,-7.05,0,*57
1495760856.13,53566,13.44,73804.5,-6.21,-7.01,-7.01,0,*56
1495760857.37,53567,13.44,73808.5,-6.23,-7.11,-7.19,0,*5D
1495760858.57,53568,13.44,73804.5,-6.21,-7.19,-7.19,0,*58
1495760859.79,53569,13.44,73806.8,-6.21,-7.27,-7.19,0,*54
1495760861.06,53570,13.44,73804.5,-6.23,-7.31,-7.31,0,*53
1495760862.33,53571,13.44,73806.5,-6.23,-7.35,-7.35,0,*52
1495760863.61,53572,13.44,73804.3,-6.23,-7.43,-7.43,0,*51
1495760864.86,53573,13.44,73804.8,-6.21,-7.35,-7.27,0,*51
1495760866.14,53574,13.44,73802.3,-6.23,-7.35,-7.31,0,*53
1495760867.41,53575,13.44,73806.5,-6.23,-7.35,-7.43,0,*57
1495760868.66,53576,13.44,73806.8,-6.25,-7.35,-7.35,0,*53
1495760869.91,53577,13.44,73806.5,-6.25,-7.43,-7.35,0,*53
1495760871.17,53578,13.44,73804.8,-6.25,-7.35,-7.35,0,*5D
1495760872.37,53579,13.44,73804.5,-6.25,-7.23,-7.19,0,*55
1495760873.58,53580,13.44,73806.3,-6.25,-7.11,-7.11,0,*5A
1495760874.83,53581,13.44,73804.0,-6.25,-7.05,-7.01,0,*5F
1495760876.09,53582,13.44,73804.0,-6.23,-7.05,-7.05,0,*5E
1495760877.36,53583,13.44,73804.8,-6.23,-7.05,-7.05,0,*5F
1495760878.62,53584,13.44,73804.0,-6.23,-7.05,-7.05,0,*58
1495760879.9,53585,13.44,73806.5,-6.23,-7.01,-7.01,0,*59
1495760881.17,53586,13.44,73804.0,-6.23,-7.05,-7.01,0,*5E
1495760882.43,53587,13.44,73806.5,-6.23,-7.01,-7.05,0,*5F
1495760883.7,53588,13.44,73804.3,-6.23,-7.05,-7.01,0,*50
1495760884.93,53589,13.44,73802.8,-6.23,-6.89,-6.81,0,*5D
1495760886.17,53590,13.44,73806.5,-6.23,-6.81,-6.81,0,*5D
1495760887.39,53591,13.44,73804.3,-6.23,-6.89,-6.89,0,*5C
1495760888.67,53592,13.44,73804.8,-6.23,-6.93,-6.93,0,*5F
1495760889.86,53593,13.44,73804.0,-6.21,-6.85,-6.89,0,*50
1495760891.06,53594,13.44,73802.5,-6.21,-6.85,-6.89,0,*57
1495760892.25,53595,13.44,73804.0,-6.21,-6.85,-6.89,0,*56
1495760893.5,53596,13.44,73802.0,-6.21,-6.97,-6.97,0,*59
1495760894.75,53597,13.44,73802.5,-6.21,-7.01,-7.01,0,*58
1495760896.01,53598,13.44,73806.0,-6.23,-7.05,-7.05,0,*55
1495760897.26,53599,13.44,73802.5,-6.19,-7.15,-7.05,0,*5C
1495760898.51,53600,13.44,73804.5,-6.21,-6.97,-7.01,0,*5B
1495760899.73,53601,13.44,73806.5,-6.21,-6.89,-7.01,0,*55
1495760900.99,53602,13.44,73804.8,-6.19,-7.01,-7.05,0,*58
1495760902.22,53603,13.44,73808.5,-6.21,-7.05,-7.15,0,*57
1495760903.46,53604,13.44,73804.0,-6.21,-7.05,-7.05,0,*51
1495760904.7,53605,13.44,73804.5,-6.21,-6.97,-6.97,0,*50
1495760905.95,53606,13.44,73804.3,-6.21,-7.01,-6.97,0,*5D
1495760907.23,53607,13.44,73806.8,-6.19,-6.97,-6.97,0,*59
1495760908.51,53608,13.44,73802.5,-6.19,-6.97,-6.97,0,*56
1495760909.78,53609,13.44,73804.0,-6.19,-7.01,-7.01,0,*57
1495760911.01,53610,13.44,73806.3,-6.19,-7.15,-7.15,0,*5F
1495760912.24,53611,13.44,73804.3,-6.17,-7.11,-7.01,0,*51